Weather History for Cincinnati, OH

Change the Weather History Date:

Friday, January 31, 2014

  Actual Average Record
Temperature  
Mean Temperature 38 °F -  
Max Temperature 43 °F 41 °F 66 °F (2002)
Min Temperature 33 °F 24 °F -7 °F (2004)
Degree Days  
Heating Degree Days 27    
Moisture  
Dew Point 16 °F    
Average Humidity 45    
Maximum Humidity 73    
Minimum Humidity 30    
Precipitation  
Precipitation 0.00 in - - ()
Sea Level Pressure  
Sea Level Pressure 30.12 in    
Wind  
Wind Speed 6 mph (SSW)    
Max Wind Speed 12 mph    
Max Gust Speed -    
Visibility 10 miles    
Events      
Averages and records for this station are not official NWS values.
T = Trace of Precipitation, MM = Missing Value Source: NWS Daily Summary

Daily Weather History Graph

Daily Weather History Graph

Search for Another Location

Airport:

Trip Planner

Search our weather history database for the weather conditions in past years. The results will help you decide how hot, cold, wet, or windy it might be!

Date:

Astronomy

Jan. 31, 2014 Rise Set
Actual Time 7:45 AM EST 5:57 PM EST
Civil Twilight 7:16 AM EST 6:25 PM EST
Nautical Twilight 6:44 AM EST 6:57 PM EST
Astronomical Twilight 6:13 AM EST 7:29 PM EST
Moon 7:55 AM EST (1/31) 7:19 PM EST (1/31)
Length of Visible Light 11h 08m
Length of Day
10h 12m
New Moon, 1% of the Moon is Illuminated
Jan 31
New Moon
Feb 6
First Quarter
Feb 14
Full
Feb 22
Last Quarter
Mar 1
New

Hourly Weather History & Observations

Time (EST) Temp. Windchill Dew Point Humidity Pressure Visibility Wind Dir Wind Speed Gust Speed Precip Events Conditions
12:53 AM 34.0 °F 26.6 °F 10.0 °F 37% 30.06 in 10.0 mi SSW 9.2 mph - N/A   Mostly Cloudy
1:53 AM 35.1 °F 27.4 °F 10.0 °F 35% 30.06 in 10.0 mi SSW 10.4 mph - N/A   Mostly Cloudy
2:53 AM 34.0 °F 25.5 °F 10.9 °F 38% 30.06 in 10.0 mi SSW 11.5 mph - N/A   Clear
3:53 AM 34.0 °F 25.5 °F 10.9 °F 38% 30.06 in 10.0 mi SSW 11.5 mph - N/A   Scattered Clouds
4:53 AM 34.0 °F 26.0 °F 10.9 °F 38% 30.08 in 10.0 mi SW 10.4 mph - N/A   Overcast
5:53 AM 33.1 °F 27.7 °F 12.9 °F 43% 30.10 in 10.0 mi SSW 5.8 mph - N/A   Overcast
6:53 AM 34.0 °F 31.0 °F 12.0 °F 40% 30.11 in 10.0 mi South 3.5 mph - N/A   Overcast
7:53 AM 34.0 °F 28.8 °F 12.0 °F 40% 30.13 in 10.0 mi South 5.8 mph - N/A   Overcast
8:53 AM 34.0 °F 28.0 °F 14.0 °F 44% 30.15 in 10.0 mi South 6.9 mph - N/A   Overcast
9:53 AM 35.1 °F 32.2 °F 12.9 °F 40% 30.17 in 10.0 mi SW 3.5 mph - N/A   Overcast
10:53 AM 36.0 °F 33.3 °F 12.9 °F 39% 30.17 in 10.0 mi SSW 3.5 mph - N/A   Overcast
11:53 AM 37.0 °F 32.4 °F 12.0 °F 36% 30.18 in 10.0 mi SW 5.8 mph - N/A   Overcast
12:53 PM 37.9 °F 33.5 °F 12.9 °F 36% 30.14 in 10.0 mi SSW 5.8 mph - N/A   Overcast
1:53 PM 39.9 °F 37.8 °F 12.0 °F 32% 30.13 in 10.0 mi West 3.5 mph - N/A   Overcast
2:53 PM 39.9 °F 35.8 °F 18.0 °F 41% 30.13 in 10.0 mi SSW 5.8 mph - N/A   Overcast
3:53 PM 43.0 °F - 12.9 °F 30% 30.13 in 10.0 mi Calm Calm - N/A   Mostly Cloudy
4:53 PM 42.1 °F - 14.0 °F 32% 30.14 in 10.0 mi Calm Calm - N/A   Overcast
5:53 PM 39.0 °F - 17.1 °F 41% 30.14 in 10.0 mi Calm Calm - N/A   Overcast
6:53 PM 36.0 °F - 21.0 °F 55% 30.15 in 10.0 mi Calm Calm - N/A   Overcast
7:53 PM 35.1 °F - 21.9 °F 59% 30.15 in 10.0 mi Calm Calm - N/A   Overcast
8:53 PM 37.0 °F - 19.9 °F 50% 30.14 in 10.0 mi Calm Calm - N/A   Overcast
9:53 PM 34.0 °F - 24.1 °F 67% 30.13 in 10.0 mi Calm Calm - N/A   Overcast
10:53 PM 34.0 °F - 26.1 °F 73% 30.12 in 10.0 mi Calm Calm - N/A   Overcast
11:04 PM 34.0 °F - 26.1 °F 73% 30.11 in 10.0 mi Calm Calm - N/A   Overcast
11:53 PM 34.0 °F - 26.1 °F 73% 30.11 in 10.0 mi Calm Calm - N/A   Overcast